This demonstration page uses our WeatherBlox Daily Observations layout. Learn more.

Left ArrowRight Arrow

38.83388, -104.82136

Hourly Observations for January 6, 2015

Temp ( °F °C ) Dew Point ( °F °C ) Humidity (%) Winds ( mph kmh ) Pressure ( in mb ) Visibility ( mi km ) Precip ( " mm )
12:56 am 00:56 Clear 38 3.6 28 -2.4 65 65 VRB 3 6 30.29 1026 10 16 N/A
1:56 am 01:56 Clear 38 3.4 24 -4.2 58 58 SSE 13 20 30.31 1027 10 16 N/A
2:56 am 02:56 Clear 37 2.8 25 -4 61 61 S 21 33 30.31 1027 10 16 N/A
3:56 am 03:56 Clear 34 0.9 26 -3.5 73 73 S 12 19 30.32 1027 10 16 N/A
4:56 am 04:56 Clear 31 -0.7 26 -3.2 83 83 S 8 13 30.34 1028 10 16 N/A
5:56 am 05:56 Clear 30 -1.2 26 -3.4 85 85 S 6 9 30.33 1027 10 16 N/A
6:56 am 06:56 Clear 28 -2 25 -3.8 88 88 NE 2 4 30.38 1029 10 16 N/A
7:56 am 07:56 Sunny 30 -1.3 26 -3.3 86 86 VRB 1 2 30.37 1028 10 16 N/A
8:56 am 08:56 Sunny 31 -0.4 26 -3.1 82 82 ESE 1 2 30.36 1028 10 16 N/A
9:56 am 09:56 Sunny 37 2.6 28 -2.4 70 70 NNE 5 7 30.30 1026 10 16 N/A
10:56 am 10:56 Sunny 44 6.5 29 -1.4 57 57 VRB 3 6 30.26 1025 10 16 N/A
11:56 am 11:56 Sunny 46 7.7 30 -1.2 54 54 VRB 2 4 30.23 1024 10 16 N/A
12:56 pm 12:56 Sunny 50 9.8 30 -0.9 48 48 S 3 6 30.23 1024 10 16 N/A
1:56 pm 13:56 Sunny 48 9 31 -0.7 51 51 S 7 11 30.24 1024 10 16 N/A
2:56 pm 14:56 Sunny 50 9.8 30 -1.2 47 47 SSW 2 4 30.26 1025 10 16 N/A
3:56 pm 15:56 Sunny 47 8.1 28 -2.3 48 48 NW 5 7 30.33 1027 10 16 N/A
4:56 pm 16:56 Clear 46 7.8 29 -1.4 53 53 WNW 6 9 30.35 1028 10 16 N/A
5:56 pm 17:56 Clear 48 9 28 -2.2 46 46 SSW 8 13 30.38 1029 10 16 N/A
6:56 pm 18:56 Clear 47 8.1 29 -1.7 50 50 VRB 2 4 30.42 1030 10 16 N/A
7:56 pm 19:56 Clear 47 8.4 28 -2.2 48 48 S 10 17 30.42 1030 10 16 N/A
8:56 pm 20:56 Clear 44 6.7 28 -2.1 54 54 VRB 2 4 30.45 1031 10 16 N/A
9:56 pm 21:56 Clear 43 5.9 28 -2 57 57 NW 3 6 30.44 1031 10 16 N/A
10:56 pm 22:56 Clear 45 7 27 -2.7 50 50 W 2 4 30.40 1029 10 16 N/A
11:56 pm 23:56 Clear 43 6.1 27 -2.6 54 54 VRB 2 4 30.39 1029 10 16 N/A

Powered by AerisWeather